Location: Unspecified
(43.4680°N, 87.1740°E)
Time: 05:19:21
(UTC+00:00)

Cosmos 1356 Rocket - Pass Details

Date: 01 August 2021
Orbit: 543 x 597 km, 81.2° (Epoch: 27 September)

Event Time Altitude Azimuth Distance (km) Brightness Sun altitude
Exits shadow 20:13:09 55° 311° (NW) 663 3.7 -23.3°
Drops below altitude 10° 20:16:42 10° 2° (N) 1,819 6.8 -22.9°
Sets 20:18:54 0° 7° (N) 2,716 8.0 -22.7°
